| time (UTC) | temp F | wind direction | speed MPH | gust MPH | rain 1hr in | rain 24hr in | rain mn in | humidity % | barometer mb |
| 20260504130519 | 61 | 0 | 0.0 | 2.0 | 0.00 | 0.00 | 0.00 | 91 | 1019.8 |
| 20260504110521 | 52 | 0 | 0.0 | 0.0 | 0.00 | 0.00 | 0.00 | 92 | 1019.1 |
| 20260504100518 | 53 | 0 | 0.0 | 0.0 | 0.00 | 0.00 | 0.00 | 91 | 1019.1 |
| 20260504081538 | 54 | 0 | 0.0 | 0.0 | 0.00 | 0.00 | 0.00 | 91 | 1019.2 |
| 20260504081022 | 54 | 0 | 0.0 | 0.0 | 0.00 | 0.00 | 0.00 | 91 | 1019.3 |
| 20260504080522 | 54 | 0 | 0.0 | 0.0 | 0.00 | 0.00 | 0.00 | 91 | 1019.3 |
| 20260504050519 | 56 | 0 | 0.0 | 0.0 | 0.00 | 0.00 | 0.00 | 87 | 1020.6 |
| 20260504045519 | 56 | 0 | 0.0 | 0.0 | 0.00 | 0.00 | 0.00 | 86 | 1020.4 |
| 20260504045019 | 56 | 0 | 0.0 | 0.0 | 0.00 | 0.00 | 0.00 | 86 | 1020.5 |
| 20260504044543 | 57 | 0 | 0.0 | 0.0 | 0.00 | 0.00 | 0.00 | 86 | 1020.6 |
| 20260504044019 | 57 | 0 | 0.0 | 0.0 | 0.00 | 0.00 | 0.00 | 86 | 1020.6 |
| 20260504043519 | 57 | 0 | 0.0 | 0.0 | 0.00 | 0.00 | 0.00 | 86 | 1020.6 |
| 20260504043036 | 57 | 0 | 0.0 | 2.0 | 0.00 | 0.00 | 0.00 | 85 | 1020.6 |
| 20260504042518 | 57 | 0 | 0.0 | 2.0 | 0.00 | 0.00 | 0.00 | 85 | 1020.7 |
| 20260504042016 | 57 | 144 | 0.0 | 0.0 | 0.00 | 0.00 | 0.00 | 85 | 1020.7 |
| 20260504041536 | 57 | 0 | 0.0 | 0.0 | 0.00 | 0.00 | 0.00 | 84 | 1020.7 |
| 20260504041017 | 58 | 0 | 0.0 | 2.0 | 0.00 | 0.00 | 0.00 | 84 | 1020.6 |
| 20260504040519 | 58 | 0 | 0.0 | 2.0 | 0.00 | 0.00 | 0.00 | 84 | 1020.7 |
| 20260504040044 | 58 | 0 | 0.0 | 1.0 | 0.00 | 0.00 | 0.00 | 84 | 1020.7 |
| 20260504035520 | 58 | 0 | 0.0 | 0.0 | 0.00 | 0.00 | 0.00 | 83 | 1020.7 |
| 20260504035017 | 58 | 0 | 0.0 | 1.0 | 0.00 | 0.00 | 0.00 | 83 | 1020.6 |
| 20260504034536 | 58 | 0 | 0.0 | 1.0 | 0.00 | 0.00 | 0.00 | 83 | 1020.5 |
| 20260504034020 | 59 | 0 | 0.0 | 1.0 | 0.00 | 0.00 | 0.00 | 82 | 1020.6 |
| 20260504033521 | 59 | 0 | 0.0 | 0.0 | 0.00 | 0.00 | 0.00 | 81 | 1020.6 |
| 20260504033037 | 59 | 0 | 0.0 | 2.0 | 0.00 | 0.00 | 0.00 | 81 | 1020.7 |
| 20260504032521 | 59 | 0 | 0.0 | 2.0 | 0.00 | 0.00 | 0.00 | 81 | 1020.7 |
| 20260504032021 | 59 | 144 | 0.0 | 1.0 | 0.00 | 0.00 | 0.00 | 80 | 1020.7 |
| 20260504031536 | 59 | 0 | 0.0 | 0.0 | 0.00 | 0.00 | 0.00 | 80 | 1020.7 |
| 20260504031019 | 60 | 0 | 0.0 | 0.0 | 0.00 | 0.00 | 0.00 | 80 | 1020.6 |
| 20260504030520 | 60 | 0 | 0.0 | 1.0 | 0.00 | 0.00 | 0.00 | 80 | 1020.7 |
| 20260504030039 | 60 | 0 | 0.0 | 1.0 | 0.00 | 0.00 | 0.00 | 80 | 1020.7 |
| 20260504025522 | 60 | 0 | 0.0 | 1.0 | 0.00 | 0.00 | 0.00 | 79 | 1020.6 |
| 20260504025022 | 60 | 0 | 0.0 | 2.0 | 0.00 | 0.00 | 0.00 | 79 | 1020.6 |
| 20260504024535 | 60 | 0 | 0.0 | 2.0 | 0.00 | 0.00 | 0.00 | 79 | 1020.5 |
| 20260504024021 | 60 | 0 | 0.0 | 1.0 | 0.00 | 0.00 | 0.00 | 79 | 1020.6 |
| 20260504023522 | 61 | 0 | 0.0 | 0.0 | 0.00 | 0.00 | 0.00 | 79 | 1020.4 |
| 20260504023035 | 61 | 0 | 0.0 | 0.0 | 0.00 | 0.00 | 0.00 | 77 | 1020.3 |
| 20260504022521 | 61 | 0 | 0.0 | 0.0 | 0.00 | 0.00 | 0.00 | 77 | 1020.3 |
| 20260504022022 | 62 | 0 | 0.0 | 1.0 | 0.00 | 0.00 | 0.00 | 76 | 1020.3 |
| 20260504021538 | 62 | 0 | 0.0 | 2.0 | 0.00 | 0.00 | 0.00 | 76 | 1020.3 |
| 20260504021020 | 62 | 0 | 0.0 | 2.0 | 0.00 | 0.00 | 0.00 | 76 | 1020.2 |
| 20260504020519 | 62 | 144 | 0.0 | 2.0 | 0.00 | 0.00 | 0.00 | 75 | 1020.2 |
| 20260504020036 | 63 | 144 | 0.0 | 2.0 | 0.00 | 0.00 | 0.00 | 74 | 1020.1 |
| 20260504015522 | 63 | 0 | 0.0 | 1.0 | 0.00 | 0.00 | 0.00 | 74 | 1019.9 |
| 20260504015022 | 64 | 144 | 0.0 | 1.0 | 0.00 | 0.00 | 0.00 | 73 | 1019.8 |
| 20260504014536 | 64 | 0 | 0.0 | 0.0 | 0.00 | 0.00 | 0.00 | 72 | 1019.8 |
| 20260504014018 | 64 | 0 | 0.0 | 0.0 | 0.00 | 0.00 | 0.00 | 71 | 1019.7 |
| 20260504013518 | 65 | 0 | 0.0 | 2.0 | 0.00 | 0.00 | 0.00 | 71 | 1019.7 |
| 20260504013046 | 65 | 0 | 0.0 | 2.0 | 0.00 | 0.00 | 0.00 | 70 | 1019.6 |
| 20260504012525 | 66 | 144 | 0.0 | 1.0 | 0.00 | 0.00 | 0.00 | 67 | 1019.6 |
| 20260504012022 | 66 | 0 | 0.0 | 0.0 | 0.00 | 0.00 | 0.00 | 67 | 1019.6 |
| 20260504011537 | 67 | 0 | 0.0 | 0.0 | 0.00 | 0.00 | 0.00 | 67 | 1019.5 |
| 20260504011019 | 67 | 0 | 0.0 | 0.0 | 0.00 | 0.00 | 0.00 | 65 | 1019.4 |
| 20260504010520 | 68 | 0 | 0.0 | 1.0 | 0.00 | 0.00 | 0.00 | 66 | 1019.4 |
| 20260504010035 | 68 | 0 | 0.0 | 1.0 | 0.00 | 0.00 | 0.00 | 66 | 1019.4 |
| 20260504005519 | 68 | 0 | 0.0 | 2.0 | 0.00 | 0.00 | 0.00 | 66 | 1019.5 |
| 20260504005019 | 69 | 144 | 0.0 | 2.0 | 0.00 | 0.00 | 0.00 | 64 | 1019.4 |
| 20260504004532 | 69 | 0 | 0.0 | 2.0 | 0.00 | 0.00 | 0.00 | 61 | 1019.5 |
| 20260504004023 | 70 | 0 | 0.0 | 1.0 | 0.00 | 0.00 | 0.00 | 59 | 1019.4 |
| 20260504003520 | 70 | 0 | 0.0 | 0.0 | 0.00 | 0.00 | 0.00 | 59 | 1019.4 |
| 20260504003036 | 71 | 0 | 0.0 | 0.0 | 0.00 | 0.00 | 0.00 | 57 | 1019.4 |
| 20260504002522 | 71 | 0 | 0.0 | 0.0 | 0.00 | 0.00 | 0.00 | 56 | 1019.4 |
| 20260504002021 | 72 | 0 | 0.0 | 1.0 | 0.00 | 0.00 | 0.00 | 54 | 1019.3 |
| 20260504001536 | 72 | 0 | 0.0 | 3.0 | 0.00 | 0.00 | 0.00 | 53 | 1019.3 |
| 20260504001022 | 72 | 0 | 1.0 | 3.0 | 0.00 | 0.00 | 0.00 | 51 | 1019.4 |
| 20260504000521 | 74 | 350 | 1.0 | 3.0 | 0.00 | 0.00 | 0.00 | 50 | 1019.4 |
| 20260504000036 | 75 | 0 | 0.0 | 1.0 | 0.00 | 0.00 | 0.00 | 47 | 1019.4 |
| 20260503235518 | 75 | 0 | 0.0 | 2.0 | 0.00 | 0.00 | 0.00 | 48 | 1019.5 |
| 20260503235019 | 76 | 0 | 0.0 | 2.0 | 0.00 | 0.00 | 0.00 | 46 | 1019.5 |
| 20260503234535 | 76 | 350 | 0.0 | 3.0 | 0.00 | 0.00 | 0.00 | 43 | 1019.5 |
| 20260503234022 | 76 | 0 | 0.0 | 3.0 | 0.00 | 0.00 | 0.00 | 44 | 1019.5 |
| 20260503233521 | 76 | 350 | 1.0 | 5.0 | 0.00 | 0.00 | 0.00 | 41 | 1019.5 |
| 20260503233040 | 77 | 350 | 0.0 | 5.0 | 0.00 | 0.00 | 0.00 | 41 | 1019.5 |
| 20260503232520 | 77 | 360 | 1.0 | 4.0 | 0.00 | 0.00 | 0.00 | 40 | 1019.6 |
| 20260503232019 | 77 | 333 | 1.0 | 4.0 | 0.00 | 0.00 | 0.00 | 40 | 1019.5 |
| 20260503231536 | 77 | 327 | 1.0 | 4.0 | 0.00 | 0.00 | 0.00 | 39 | 1019.6 |
| 20260503231020 | 77 | 17 | 1.0 | 4.0 | 0.00 | 0.00 | 0.00 | 41 | 1019.5 |
| 20260503230525 | 77 | 0 | 1.0 | 5.0 | 0.00 | 0.00 | 0.00 | 41 | 1019.6 |
| 20260503230037 | 77 | 346 | 2.0 | 5.0 | 0.00 | 0.00 | 0.00 | 41 | 1019.5 |
| 20260503225520 | 77 | 5 | 1.0 | 3.0 | 0.00 | 0.00 | 0.00 | 39 | 1019.5 |
| 20260503225022 | 77 | 5 | 0.0 | 4.0 | 0.00 | 0.00 | 0.00 | 38 | 1019.5 |
| 20260503224536 | 77 | 5 | 1.0 | 4.0 | 0.00 | 0.00 | 0.00 | 38 | 1019.5 |
| 20260503224022 | 77 | 350 | 1.0 | 5.0 | 0.00 | 0.00 | 0.00 | 39 | 1019.6 |
| 20260503223521 | 77 | 297 | 1.0 | 5.0 | 0.00 | 0.00 | 0.00 | 41 | 1019.7 |
| 20260503223036 | 77 | 348 | 1.0 | 5.0 | 0.00 | 0.00 | 0.00 | 41 | 1019.7 |
| 20260503222521 | 77 | 346 | 1.0 | 5.0 | 0.00 | 0.00 | 0.00 | 41 | 1019.7 |
| 20260503222020 | 77 | 348 | 1.0 | 8.0 | 0.00 | 0.00 | 0.00 | 43 | 1019.7 |
| 20260503221543 | 77 | 12 | 3.0 | 9.0 | 0.00 | 0.00 | 0.00 | 40 | 1019.7 |
| 20260503221020 | 76 | 331 | 2.0 | 9.0 | 0.00 | 0.00 | 0.00 | 41 | 1019.8 |
| 20260503220520 | 76 | 331 | 2.0 | 6.0 | 0.00 | 0.00 | 0.00 | 43 | 1019.8 |
| 20260503220040 | 76 | 78 | 2.0 | 5.0 | 0.00 | 0.00 | 0.00 | 43 | 1019.8 |
| 20260503215521 | 75 | 319 | 1.0 | 4.0 | 0.00 | 0.00 | 0.00 | 44 | 1019.8 |
| 20260503215025 | 75 | 0 | 0.0 | 3.0 | 0.00 | 0.00 | 0.00 | 41 | 1020.0 |
| 20260503214539 | 75 | 0 | 1.0 | 3.0 | 0.00 | 0.00 | 0.00 | 43 | 1020.0 |
| 20260503214018 | 75 | 275 | 1.0 | 4.0 | 0.00 | 0.00 | 0.00 | 42 | 1020.0 |
| 20260503213519 | 75 | 275 | 2.0 | 6.0 | 0.00 | 0.00 | 0.00 | 42 | 1020.1 |
| 20260503213043 | 75 | 278 | 1.0 | 8.0 | 0.00 | 0.00 | 0.00 | 44 | 1020.2 |
| 20260503212521 | 75 | 285 | 4.0 | 8.0 | 0.00 | 0.00 | 0.00 | 43 | 1020.2 |
| 20260503212021 | 75 | 333 | 2.0 | 5.0 | 0.00 | 0.00 | 0.00 | 43 | 1020.3 |
| 20260503211537 | 75 | 75 | 1.0 | 6.0 | 0.00 | 0.00 | 0.00 | 48 | 1020.4 |
| 20260503211021 | 75 | 91 | 2.0 | 6.0 | 0.00 | 0.00 | 0.00 | 43 | 1020.4 |
| 20260503210525 | 75 | 84 | 2.0 | 5.0 | 0.00 | 0.00 | 0.00 | 44 | 1020.4 |
| 20260503210035 | 75 | 333 | 2.0 | 6.0 | 0.00 | 0.00 | 0.00 | 42 | 1020.5 |
| 20260503205519 | 75 | 21 | 2.0 | 7.0 | 0.00 | 0.00 | 0.00 | 43 | 1020.7 |
| 20260503205038 | 75 | 13 | 3.0 | 7.0 | 0.00 | 0.00 | 0.00 | 46 | 1020.7 |
| 20260503204535 | 74 | 148 | 0.0 | 4.0 | 0.00 | 0.00 | 0.00 | 45 | 1020.7 |
| 20260503204022 | 74 | 90 | 1.0 | 4.0 | 0.00 | 0.00 | 0.00 | 48 | 1020.8 |
| 20260503203522 | 74 | 126 | 0.0 | 3.0 | 0.00 | 0.00 | 0.00 | 46 | 1021.0 |
| 20260503203034 | 73 | 148 | 1.0 | 7.0 | 0.00 | 0.00 | 0.00 | 43 | 1021.0 |
| 20260503202518 | 73 | 0 | 2.0 | 9.0 | 0.00 | 0.00 | 0.00 | 43 | 1021.0 |
| 20260503202021 | 74 | 169 | 2.0 | 9.0 | 0.00 | 0.00 | 0.00 | 43 | 1021.2 |
| 20260503201539 | 74 | 312 | 1.0 | 5.0 | 0.00 | 0.00 | 0.00 | 41 | 1021.3 |
| 20260503201018 | 75 | 311 | 0.0 | 5.0 | 0.00 | 0.00 | 0.00 | 43 | 1021.5 |
| 20260503200520 | 75 | 309 | 2.0 | 5.0 | 0.00 | 0.00 | 0.00 | 42 | 1021.5 |
| 20260503200037 | 75 | 312 | 2.0 | 8.0 | 0.00 | 0.00 | 0.00 | 43 | 1021.7 |
| 20260503195519 | 75 | 336 | 3.0 | 13.0 | 0.00 | 0.00 | 0.00 | 42 | 1021.7 |
| 20260503195020 | 76 | 272 | 3.0 | 13.0 | 0.00 | 0.00 | 0.00 | 42 | 1021.8 |
| 20260503194538 | 76 | 310 | 3.0 | 13.0 | 0.00 | 0.00 | 0.00 | 42 | 1021.9 |
| 20260503194020 | 75 | 73 | 1.0 | 7.0 | 0.00 | 0.00 | 0.00 | 50 | 1022.0 |
| 20260503193522 | 74 | 16 | 2.0 | 7.0 | 0.00 | 0.00 | 0.00 | 43 | 1022.1 |
| 20260503193036 | 74 | 152 | 0.0 | 11.0 | 0.00 | 0.00 | 0.00 | 44 | 1022.2 |
| 20260503192521 | 74 | 152 | 5.0 | 11.0 | 0.00 | 0.00 | 0.00 | 47 | 1022.2 |
| 20260503192018 | 75 | 101 | 1.0 | 5.0 | 0.00 | 0.00 | 0.00 | 43 | 1022.3 |
| 20260503191534 | 75 | 84 | 1.0 | 6.0 | 0.00 | 0.00 | 0.00 | 46 | 1022.4 |
| 20260503191021 | 74 | 97 | 0.0 | 6.0 | 0.00 | 0.00 | 0.00 | 48 | 1022.5 |
| 20260503190523 | 74 | 97 | 2.0 | 6.0 | 0.00 | 0.00 | 0.00 | 44 | 1022.5 |
| 20260503190049 | 75 | 352 | 3.0 | 6.0 | 0.00 | 0.00 | 0.00 | 43 | 1022.6 |
| 20260503185520 | 74 | 35 | 1.0 | 7.0 | 0.00 | 0.00 | 0.00 | 48 | 1022.6 |
| 20260503185020 | 74 | 0 | 1.0 | 7.0 | 0.00 | 0.00 | 0.00 | 40 | 1022.7 |
| 20260503184536 | 74 | 336 | 2.0 | 6.0 | 0.00 | 0.00 | 0.00 | 47 | 1022.8 |
| 20260503184019 | 74 | 0 | 0.0 | 8.0 | 0.00 | 0.00 | 0.00 | 43 | 1022.9 |
| 20260503183518 | 74 | 275 | 2.0 | 8.0 | 0.00 | 0.00 | 0.00 | 46 | 1022.9 |
| 20260503183042 | 74 | 281 | 2.0 | 5.0 | 0.00 | 0.00 | 0.00 | 44 | 1023.0 |
| 20260503182519 | 73 | 331 | 2.0 | 4.0 | 0.00 | 0.00 | 0.00 | 45 | 1023.0 |
| 20260503182019 | 73 | 320 | 2.0 | 6.0 | 0.00 | 0.00 | 0.00 | 42 | 1023.1 |
| 20260503181536 | 74 | 325 | 2.0 | 6.0 | 0.00 | 0.00 | 0.00 | 43 | 1023.1 |
| 20260503181019 | 73 | 267 | 2.0 | 6.0 | 0.00 | 0.00 | 0.00 | 47 | 1023.3 |
| 20260503180519 | 73 | 270 | 2.0 | 7.0 | 0.00 | 0.00 | 0.00 | 43 | 1023.4 |
| 20260503180051 | 73 | 250 | 3.0 | 7.0 | 0.00 | 0.00 | 0.00 | 42 | 1023.4 |
| 20260503175519 | 74 | 309 | 2.0 | 5.0 | 0.00 | 0.00 | 0.00 | 45 | 1023.3 |
| 20260503175022 | 74 | 308 | 2.0 | 5.0 | 0.00 | 0.00 | 0.00 | 45 | 1023.4 |
| 20260503174648 | 73 | 23 | 2.0 | 5.0 | 0.00 | 0.00 | 0.00 | 45 | 1023.4 |
| 20260503174022 | 74 | 31 | 2.0 | 5.0 | 0.00 | 0.00 | 0.00 | 52 | 1023.5 |
| 20260503173521 | 73 | 312 | 1.0 | 6.0 | 0.00 | 0.00 | 0.00 | 45 | 1023.6 |
| 20260503173056 | 73 | 314 | 2.0 | 7.0 | 0.00 | 0.00 | 0.00 | 42 | 1023.5 |
| 20260503172521 | 73 | 351 | 2.0 | 9.0 | 0.00 | 0.00 | 0.00 | 46 | 1023.6 |
| 20260503172021 | 73 | 348 | 3.0 | 9.0 | 0.00 | 0.00 | 0.00 | 45 | 1023.7 |
| 20260503171542 | 73 | 37 | 3.0 | 6.0 | 0.00 | 0.00 | 0.00 | 44 | 1023.9 |
| 20260503171022 | 72 | 78 | 1.0 | 6.0 | 0.00 | 0.00 | 0.00 | 48 | 1023.9 |
| 20260503170537 | 72 | 109 | 2.0 | 6.0 | 0.00 | 0.00 | 0.00 | 49 | 1024.1 |
| 20260503150518 | 69 | 352 | 1.0 | 4.0 | 0.00 | 0.00 | 0.00 | 56 | 1024.5 |